Tracking 35275 objects as of 8-Sep-2026
HD Live streaming from Space Station
objects crossing your sky now

COSMOS 2160

Track COSMOS 2160 now!
10-day predictions
COSMOS 2160 is classified as:


NORAD ID: 21731
Int'l Code: 1991-068D
Launch date: September 28, 1991
Source: Commonwealth of Independent States (former USSR) (CIS)
Launch site: PLESETSK MISSILE AND SPACE COMPLEX (PKMTR)
Your satellite tracking list
Your tracking list is empty




NASA's NSSDC Master Catalog

Two Line Element Set (TLE):
1 21731U 91068D   26251.51421853  .00000040  00000-0  15785-3 0  9996
2 21731  82.5816 250.9837 0008756 173.1564 310.9018 12.64709091613060
Source of the keplerian elements: AFSPC